Flag for U.S.A. Weather past 2 weeks in Mountain View, California, U.S.A.

Now
69 °F

Sunny.


Feels Like: 69 °F
Forecast: 62 / 85 °F
Wind: 9 mph from Northwest

Location: Moffett Field

Current Time: Jul 28, 2014 at 9:00:08 PM

Latest Report: Jul 28, 2014 at 7:56 PM


Visibility: 10 mi

Pressure: 30.03 "Hg

Humidity: 70%

Dew point: 59 °F

Location of Mountain ViewLocation

Historic Weather in Mountain View — Graph

°F

Mountain View temperature yesterday

Maximum temperature yesterday: 84 °F (at 2:56 PM)
Minimum temperature yesterday: 64 °F (at 11:56 PM)
Average temperature yesterday: 71 °F

Past Weeks' High & Low Weather Summary

 TemperatureHumidityPressure
High93 °F (Jul 25, 2:56 PM)90% (Jul 24, 5:56 AM)30.15 "Hg (Jul 24, 5:56 AM)
Low61 °F (Jul 24, 5:56 AM)19% (Jul 25, 1:56 PM)29.83 "Hg (Jul 25, 4:56 PM)
Average70 °F69%29.98 "Hg
* Reported Jul 13 6:56 PM — Jul 28 6:56 PM, Mountain View, Weather by CustomWeather, © 2014

Note: Actual official high and low records may vary slightly from our data, if they occured in-between our weather recording intervals... More about our weather records

Advertising

Mountain View weather history for previous 24 hours

 ConditionsComfort  
Time TempWeatherWind HumidityBarometerVisibility
6:56 PM
Jul 28
72 °FSunny.7 mph68%30.02 "Hg10 mi
5:56 PM73 °FSunny.9 mph64%30.02 "Hg10 mi
4:56 PM74 °FSunny.14 mph62%30.03 "Hg10 mi
3:56 PM74 °FSunny.15 mph62%30.03 "Hg10 mi
2:56 PM76 °FSunny.10 mph60%30.04 "Hg10 mi
1:56 PM77 °FSunny.8 mph56%30.04 "Hg10 mi
12:56 PM76 °FSunny.7 mph58%30.05 "Hg10 mi
11:56 AM74 °FSunny.7 mph62%30.06 "Hg10 mi
10:56 AM71 °FSunny.7 mph68%30.06 "Hg10 mi
9:56 AM69 °FSunny.6 mph70%30.06 "Hg10 mi
8:56 AM68 °FSunny.3 mph73%30.06 "Hg10 mi
7:56 AM64 °FPassing clouds.No wind81%30.04 "Hg10 mi
6:56 AM62 °FClear.No wind86%30.03 "Hg10 mi
5:56 AM62 °FPassing clouds.No wind86%30.02 "Hg10 mi
4:56 AM62 °FClear.No wind83%30.01 "Hg10 mi
3:56 AM62 °FClear.No wind83%30.00 "Hg10 mi
2:56 AM62 °FClear.3 mph83%30.00 "Hg10 mi
1:56 AM63 °FClear.6 mph84%30.01 "Hg10 mi
12:56 AM64 °FClear.7 mph81%30.02 "Hg10 mi
11:56 PM
Jul 27
64 °FClear.7 mph84%30.01 "Hg10 mi
10:56 PM65 °FClear.8 mph76%30.01 "Hg10 mi
9:56 PM67 °FClear.9 mph79%30.00 "Hg10 mi
Weather by CustomWeather, © 2014

See weather overviewHow to use our weather pages